This is the latest recevied weather packets stored in our database for station/object DH0DM-13. If no packets are shown the sender has not sent any weather packets the latest 10 day(s).
| Time | Temp. | Humidity | Pressure | Rain* | Wind** | Luminosity | Snow |
|---|---|---|---|---|---|---|---|
| 1787918066 | 23.89° C | 61% | 984.4 hPa | 0 mm | 2.24 m/s, 293° | - | - |
| 1787917465 | 23.89° C | 60% | 984.1 hPa | 0 mm | 8.49 m/s, 114° | - | - |
| 1787916864 | 23.89° C | 61% | 983.7 hPa | 0 mm | 2.68 m/s, 196° | - | - |
| 1787916263 | 23.33° C | 61% | 983.8 hPa | 0 mm | 6.71 m/s, 134° | - | - |
| 1787915663 | 23.33° C | 63% | 983.9 hPa | 0 mm | 5.36 m/s, 119° | - | - |
| 1787915062 | 23.33° C | 61% | 983.9 hPa | 0 mm | 10.73 m/s, 225° | - | - |
| 1787914461 | 23.89° C | 61% | 984.2 hPa | 0 mm | 4.02 m/s, 140° | - | - |
| 1787913860 | 23.33° C | 63% | 984.4 hPa | 0 mm | 1.79 m/s, 350° | - | - |
| 1787913259 | 23.33° C | 62% | 984.6 hPa | 0 mm | 1.34 m/s, 304° | - | - |
| 1787912658 | 22.78° C | 62% | 984.7 hPa | 0 mm | 6.71 m/s, 148° | - | - |
| 1787912057 | 22.78° C | 64% | 984.9 hPa | 0 mm | 1.34 m/s, 167° | - | - |
| 1787911456 | 22.22° C | 63% | 984.6 hPa | 0 mm | 6.71 m/s, 259° | - | - |
| 1787910855 | 22.22° C | 63% | 984.3 hPa | 0 mm | 4.92 m/s, 110° | - | - |
| 1787910254 | 22.78° C | 62% | 984 hPa | 0 mm | 16.09 m/s, 85° | - | - |
| 1787909653 | 22.78° C | 61% | 984.3 hPa | 0 mm | 5.36 m/s, 109° | - | - |
| 1787909052 | 23.33° C | 62% | 984.3 hPa | 0 mm | 1.79 m/s, 45° | - | - |
| 1787908451 | 23.33° C | 61% | 984.7 hPa | 0 mm | 4.92 m/s, 104° | - | - |
| 1787907851 | 23.33° C | 61% | 985.4 hPa | 0 mm | 6.71 m/s, 119° | - | - |
| 1787907250 | 23.33° C | 61% | 985.6 hPa | 0 mm | 4.02 m/s, 224° | - | - |
| 1787906649 | 23.33° C | 61% | 986 hPa | 0 mm | 7.15 m/s, 219° | - | - |
| 1787906048 | 23.33° C | 60% | 986.1 hPa | 0 mm | 10.28 m/s, 177° | - | - |
| 1787905447 | 23.33° C | 61% | 986 hPa | 0 mm | 4.47 m/s, 155° | - | - |
| 1787904846 | 22.78° C | 62% | 985.9 hPa | 0 mm | 2.24 m/s, 192° | - | - |
| 1787904245 | 21.67° C | 64% | 986.1 hPa | 0 mm | 0.45 m/s, 28° | - | - |
| 1787903644 | 21.67° C | 64% | 986.5 hPa | 0 mm | 1.34 m/s, 166° | - | - |
* Rain since midnight (hover to see other rain measurements)
** Current wind speed in m/s (hover to see current wind gust speed)